TimeMST,TemperatureF,Dew PointF,Humidity,Sea Level PressureIn,VisibilityMPH,Wind Direction,Wind SpeedMPH,Gust SpeedMPH,PrecipitationIn,Events,Conditions,WindDirDegrees,DateUTC
12:53 AM,30.0,27.0,88,29.89,10.0,ESE,5.8,-,N/A,,Clear,110,2013-11-20 07:53:00
1:53 AM,30.0,28.0,92,29.90,10.0,East,8.1,-,N/A,,Clear,80,2013-11-20 08:53:00
2:53 AM,28.9,27.0,92,29.92,10.0,ENE,3.5,-,N/A,,Clear,60,2013-11-20 09:53:00
3:53 AM,28.9,26.1,89,29.91,10.0,East,3.5,-,N/A,,Clear,80,2013-11-20 10:53:00
4:53 AM,28.9,27.0,92,29.92,10.0,East,6.9,-,N/A,,Clear,80,2013-11-20 11:53:00
5:53 AM,28.0,25.0,88,29.93,10.0,ENE,5.8,-,N/A,,Clear,60,2013-11-20 12:53:00
6:53 AM,27.0,25.0,92,29.94,10.0,ENE,4.6,-,N/A,,Clear,60,2013-11-20 13:53:00
7:53 AM,28.0,26.1,92,29.96,10.0,Calm,Calm,-,N/A,,Clear,0,2013-11-20 14:53:00
8:53 AM,37.0,30.9,79,29.93,10.0,Calm,Calm,-,N/A,,Clear,0,2013-11-20 15:53:00
9:53 AM,42.1,32.0,67,29.93,10.0,Calm,Calm,-,N/A,,Clear,0,2013-11-20 16:53:00
10:53 AM,48.0,33.1,56,29.89,10.0,SSW,3.5,-,N/A,,Clear,200,2013-11-20 17:53:00
11:53 AM,50.0,34.0,54,29.86,10.0,SW,8.1,-,N/A,,Clear,220,2013-11-20 18:53:00
12:53 PM,50.0,33.1,52,29.82,10.0,WSW,10.4,-,N/A,,Overcast,240,2013-11-20 19:53:00
1:53 PM,48.0,33.1,56,29.84,10.0,SW,8.1,-,N/A,,Overcast,230,2013-11-20 20:53:00
2:53 PM,46.9,35.1,63,29.83,10.0,WNW,6.9,-,N/A,,Overcast,290,2013-11-20 21:53:00
3:53 PM,44.1,37.0,76,29.86,7.0,SW,4.6,-,0.01,Rain,Light Rain,220,2013-11-20 22:53:00
4:21 PM,43.0,39.0,86,29.90,9.0,SE,4.6,-,0.01,Rain,Light Rain,140,2013-11-20 23:21:00
4:34 PM,43.0,39.9,89,29.91,10.0,Calm,Calm,-,0.01,Rain,Light Rain,0,2013-11-20 23:34:00
4:53 PM,43.0,39.0,86,29.88,10.0,Calm,Calm,-,0.01,,Overcast,0,2013-11-20 23:53:00
5:09 PM,42.1,39.0,89,29.92,10.0,WNW,3.5,-,N/A,,Overcast,300,2013-11-21 00:09:00
5:21 PM,42.1,39.0,89,29.92,10.0,NW,3.5,-,0.00,Rain,Light Rain,310,2013-11-21 00:21:00
5:53 PM,42.1,39.9,92,29.91,9.0,Calm,Calm,-,0.01,Rain,Light Rain,0,2013-11-21 00:53:00
6:14 PM,41.0,39.0,93,29.93,10.0,Calm,Calm,-,0.01,Rain,Light Rain,0,2013-11-21 01:14:00
6:53 PM,41.0,39.0,93,29.92,10.0,Calm,Calm,-,0.02,Rain,Light Rain,0,2013-11-21 01:53:00
7:53 PM,39.9,39.9,100,29.93,10.0,Calm,Calm,-,0.00,,Overcast,0,2013-11-21 02:53:00
8:34 PM,39.9,39.0,97,29.95,10.0,Calm,Calm,-,N/A,,Overcast,0,2013-11-21 03:34:00
8:53 PM,39.9,39.0,97,29.90,8.0,Calm,Calm,-,0.00,Rain,Light Rain,0,2013-11-21 03:53:00
9:20 PM,39.9,39.0,97,29.95,9.0,Calm,Calm,-,0.00,,Overcast,0,2013-11-21 04:20:00
9:38 PM,39.9,39.0,97,29.95,7.0,Calm,Calm,-,0.00,,Overcast,0,2013-11-21 04:38:00
9:53 PM,39.9,39.0,97,29.89,6.0,Calm,Calm,-,0.00,Rain,Light Rain,0,2013-11-21 04:53:00
10:10 PM,39.9,39.0,97,29.95,7.0,Calm,Calm,-,0.01,Rain,Light Rain,0,2013-11-21 05:10:00
10:53 PM,39.9,39.0,97,29.87,6.0,Calm,Calm,-,0.01,,Overcast,0,2013-11-21 05:53:00
11:02 PM,39.9,39.0,97,29.95,7.0,ENE,3.5,-,0.00,Rain,Light Rain,70,2013-11-21 06:02:00
11:11 PM,39.9,39.0,97,29.95,7.0,Calm,Calm,-,0.00,,Overcast,0,2013-11-21 06:11:00
11:19 PM,39.9,39.0,97,29.95,6.0,Calm,Calm,-,0.00,,Overcast,0,2013-11-21 06:19:00
11:53 PM,39.9,39.0,97,29.86,4.0,East,3.5,-,0.00,,Overcast,80,2013-11-21 06:53:00